Flag for U.S.A. Weather past 2 weeks in Sunrise, Florida, U.S.A.

Now
75 °F

Fog.


Feels Like: 74 °F
Forecast: 74 / 89 °F
Wind: No wind

Location: Fort Lauderdale Executive Airport

Current Time: May 23, 2015 at 5:04:17 AM

Latest Report: May 23, 2015 at 3:53 AM


Visibility: 5 mi

Pressure: 30.11 "Hg

Humidity: 88%

Dew point: 71 °F

Location of SunriseLocation

Historic Weather in Sunrise — Graph

°F

Sunrise temperature yesterday

Maximum temperature yesterday: 90 °F (at 11:53 AM)
Minimum temperature yesterday: 75 °F (at 4:53 AM)
Average temperature yesterday: 82 °F

Past Weeks' High & Low Weather Summary

 TemperatureHumidityPressure
High92 °F (May 21, 12:53 PM)100% (May 8, 4:53 AM)30.20 "Hg (May 8, 4:53 AM)
Low68 °F (May 9, 6:53 AM)38% (May 8, 1:53 PM)29.94 "Hg (May 20, 6:53 PM)
Average81 °F71%30.09 "Hg
* Reported May 8 3:53 AM — May 23 3:53 AM, Sunrise, Weather by CustomWeather, © 2015

Note: Actual official high and low records may vary slightly from our data, if they occured in-between our weather recording intervals... More about our weather records

Advertising

Sunrise weather history for previous 24 hours

 ConditionsComfort  
Time TempWeatherWind HumidityBarometerVisibility
3:53 AM
Sat, May 23
75 °FFog.No wind88%30.11 "Hg5 mi
2:53 AM74 °FClear.No wind88%30.12 "Hg8 mi
1:53 AM74 °FClear.3 mph88%30.15 "Hg10 mi
12:53 AM74 °FClear.6 mph88%30.16 "Hg10 mi
11:53 PM
Fri, May 22
77 °FClear.7 mph79%30.16 "Hg10 mi
10:53 PM80 °FClear.No wind71%30.14 "Hg10 mi
9:53 PM79 °FClear.5 mph72%30.12 "Hg10 mi
8:53 PM78 °FSunny.3 mph71%30.12 "Hg10 mi
7:53 PM79 °FSunny.6 mph69%30.12 "Hg10 mi
6:53 PM82 °FBroken clouds.14 mph72%30.11 "Hg10 mi
5:53 PM84 °FScattered clouds.7 mph72%30.09 "Hg10 mi
4:53 PM85 °FSunny.13 mph70%30.05 "Hg10 mi
3:53 PM90 °FScattered clouds.10 mph57%30.07 "Hg10 mi
2:53 PM90 °FScattered clouds.10 mph57%30.07 "Hg10 mi
1:53 PM89 °FSunny.12 mph61%30.08 "Hg10 mi
12:53 PM89 °FSunny.10 mph59%30.09 "Hg10 mi
11:53 AM90 °FSunny.No wind52%30.08 "Hg10 mi
10:53 AM88 °FSunny.6 mph57%30.08 "Hg10 mi
9:53 AM84 °FSunny.6 mph67%30.07 "Hg10 mi
8:53 AM81 °FSunny.6 mph77%30.07 "Hg9 mi
7:53 AM77 °FFog.5 mph88%30.06 "Hg6 mi
6:53 AM75 °FFog.5 mph90%30.05 "Hg5 mi
5:53 AM75 °FClear.6 mph90%30.03 "Hg9 mi
Weather by CustomWeather, © 2015

See weather overviewHow to use our weather pages